| time (UTC) | temp F | wind direction | speed MPH | gust MPH | rain 1hr in | rain 24hr in | rain mn in | humidity % | barometer mb |
| 20260831111609 | 79 | 155 | 0.0 | 0.0 | 0.00 | 0.00 | 0.00 | 91 | 1015.2 |
| 20260831110058 | 79 | 155 | 0.0 | 0.0 | 0.00 | 0.00 | 0.00 | 92 | 1015.2 |
| 20260831110002 | 79 | 155 | 0.0 | 0.0 | 0.00 | 0.00 | 0.00 | 92 | 1015.2 |
| 20260831104559 | 80 | 155 | 0.0 | 0.0 | 0.00 | 0.00 | 0.00 | 91 | 1015.2 |
| 20260831103108 | 80 | 155 | 0.0 | 0.0 | 0.00 | 0.00 | 0.00 | 91 | 1015.1 |
| 20260831101603 | 80 | 155 | 0.0 | 0.0 | 0.00 | 0.00 | 0.00 | 91 | 1015.2 |
| 20260831100058 | 80 | 155 | 0.0 | 0.0 | 0.00 | 0.00 | 0.00 | 91 | 1015.2 |
| 20260831100002 | 80 | 155 | 0.0 | 0.0 | 0.00 | 0.00 | 0.00 | 91 | 1015.2 |
| 20260831094558 | 80 | 155 | 0.0 | 0.0 | 0.00 | 0.00 | 0.00 | 91 | 1015.2 |
| 20260831093059 | 80 | 155 | 0.0 | 0.0 | 0.00 | 0.00 | 0.00 | 91 | 1015.0 |
| 20260831091610 | 80 | 155 | 0.0 | 0.0 | 0.00 | 0.00 | 0.00 | 91 | 1015.1 |
| 20260831090103 | 80 | 155 | 0.0 | 1.0 | 0.00 | 0.00 | 0.00 | 91 | 1015.0 |
| 20260831084559 | 80 | 155 | 0.0 | 2.0 | 0.00 | 0.00 | 0.00 | 90 | 1015.2 |
| 20260831083059 | 80 | 155 | 0.0 | 2.0 | 0.00 | 0.00 | 0.00 | 90 | 1015.2 |
| 20260831081557 | 81 | 155 | 0.0 | 2.0 | 0.00 | 0.00 | 0.00 | 90 | 1015.1 |
| 20260831074558 | 81 | 155 | 0.0 | 2.0 | 0.00 | 0.00 | 0.00 | 90 | 1015.3 |
| 20260831073058 | 81 | 155 | 1.0 | 3.0 | 0.00 | 0.00 | 0.00 | 90 | 1015.3 |
| 20260831071558 | 81 | 155 | 0.0 | 2.0 | 0.00 | 0.00 | 0.00 | 90 | 1015.4 |
| 20260831070059 | 81 | 155 | 0.0 | 5.0 | 0.00 | 0.00 | 0.00 | 89 | 1015.4 |
| 20260831064559 | 81 | 153 | 0.0 | 3.0 | 0.00 | 0.00 | 0.00 | 89 | 1015.5 |
| 20260831063058 | 82 | 153 | 1.0 | 2.0 | 0.00 | 0.00 | 0.00 | 89 | 1015.7 |
| 20260831061558 | 82 | 152 | 0.0 | 2.0 | 0.00 | 0.00 | 0.00 | 89 | 1015.6 |
| 20260831054610 | 82 | 152 | 1.0 | 2.0 | 0.00 | 0.00 | 0.00 | 88 | 1015.6 |
| 20260831053059 | 82 | 150 | 1.0 | 2.0 | 0.00 | 0.00 | 0.00 | 88 | 1015.5 |
| 20260831051600 | 82 | 150 | 0.0 | 3.0 | 0.00 | 0.00 | 0.00 | 87 | 1015.5 |
| 20260831050058 | 83 | 150 | 0.0 | 2.0 | 0.00 | 0.00 | 0.00 | 87 | 1015.5 |
| 20260831050005 | 83 | 150 | 0.0 | 2.0 | 0.00 | 0.00 | 0.00 | 87 | 1015.5 |
| 20260831043101 | 83 | 153 | 0.0 | 2.0 | 0.00 | 0.00 | 0.00 | 86 | 1015.3 |
| 20260831041625 | 84 | 151 | 0.0 | 2.0 | 0.00 | 0.00 | 0.00 | 85 | 1015.4 |
| 20260831040058 | 84 | 152 | 0.0 | 5.0 | 0.00 | 0.00 | 0.00 | 84 | 1015.2 |
| 20260831033058 | 85 | 138 | 0.0 | 3.0 | 0.00 | 0.00 | 0.00 | 83 | 1014.9 |
| 20260831031609 | 85 | 169 | 2.0 | 3.0 | 0.00 | 0.00 | 0.00 | 82 | 1014.8 |
| 20260831030115 | 85 | 162 | 0.0 | 2.0 | 0.00 | 0.00 | 0.00 | 81 | 1014.7 |
| 20260831024558 | 86 | 162 | 1.0 | 4.0 | 0.00 | 0.00 | 0.00 | 79 | 1014.4 |
| 20260831023059 | 87 | 41 | 0.0 | 3.0 | 0.00 | 0.00 | 0.00 | 78 | 1014.2 |
| 20260831021558 | 87 | 176 | 0.0 | 2.0 | 0.00 | 0.00 | 0.00 | 77 | 1014.0 |
| 20260831020059 | 88 | 165 | 0.0 | 6.0 | 0.00 | 0.00 | 0.00 | 76 | 1013.8 |
| 20260831014558 | 88 | 137 | 0.0 | 3.0 | 0.00 | 0.00 | 0.00 | 74 | 1013.7 |
| 20260831013100 | 89 | 105 | 0.0 | 2.0 | 0.00 | 0.00 | 0.00 | 72 | 1013.9 |
| 20260831011605 | 90 | 164 | 0.0 | 3.0 | 0.00 | 0.00 | 0.00 | 71 | 1013.6 |
| 20260831004558 | 91 | 176 | 0.0 | 3.0 | 0.00 | 0.00 | 0.00 | 68 | 1013.5 |
| 20260831003057 | 92 | 175 | 0.0 | 4.0 | 0.00 | 0.00 | 0.00 | 66 | 1013.3 |
| 20260831001556 | 93 | 148 | 0.0 | 3.0 | 0.00 | 0.00 | 0.00 | 66 | 1013.0 |
| 20260830234601 | 94 | 134 | 1.0 | 9.0 | 0.00 | 0.00 | 0.00 | 64 | 1013.1 |
| 20260830233102 | 95 | 186 | 3.0 | 8.0 | 0.00 | 0.00 | 0.00 | 63 | 1013.0 |
| 20260830231600 | 95 | 178 | 0.0 | 5.0 | 0.00 | 0.00 | 0.00 | 59 | 1013.0 |
| 20260830230010 | 96 | 170 | 2.0 | 6.0 | 0.00 | 0.00 | 0.00 | 58 | 1013.0 |
| 20260830224607 | 96 | 178 | 1.0 | 5.0 | 0.00 | 0.00 | 0.00 | 57 | 1013.0 |
| 20260830223105 | 98 | 68 | 1.0 | 7.0 | 0.00 | 0.00 | 0.00 | 54 | 1013.2 |
| 20260830221619 | 98 | 169 | 2.0 | 8.0 | 0.00 | 0.00 | 0.00 | 55 | 1013.1 |
| 20260830220059 | 99 | 176 | 3.0 | 6.0 | 0.00 | 0.00 | 0.00 | 57 | 1013.2 |
| 20260830220003 | 99 | 174 | 4.0 | 6.0 | 0.00 | 0.00 | 0.00 | 53 | 1013.2 |
| 20260830214600 | 99 | 146 | 0.0 | 8.0 | 0.00 | 0.00 | 0.00 | 51 | 1013.3 |
| 20260830213059 | 99 | 13 | 1.0 | 6.0 | 0.00 | 0.00 | 0.00 | 51 | 1013.5 |
| 20260830211559 | 99 | 132 | 0.0 | 6.0 | 0.00 | 0.00 | 0.00 | 54 | 1013.8 |
| 20260830210058 | 99 | 44 | 1.0 | 5.0 | 0.00 | 0.00 | 0.00 | 50 | 1013.9 |
| 20260830204605 | 99 | 167 | 1.0 | 5.0 | 0.00 | 0.00 | 0.00 | 48 | 1014.1 |
| 20260830203059 | 98 | 138 | 0.0 | 3.0 | 0.00 | 0.00 | 0.00 | 52 | 1014.1 |
| 20260830201617 | 98 | 69 | 1.0 | 6.0 | 0.00 | 0.00 | 0.00 | 51 | 1014.4 |
| 20260830200111 | 97 | 92 | 0.0 | 4.0 | 0.00 | 0.00 | 0.00 | 56 | 1014.7 |
| 20260830200001 | 97 | 92 | 1.0 | 4.0 | 0.00 | 0.00 | 0.00 | 55 | 1014.7 |
| 20260830193110 | 97 | 184 | 4.0 | 8.0 | 0.00 | 0.00 | 0.00 | 60 | 1015.2 |
| 20260830191605 | 96 | 169 | 1.0 | 4.0 | 0.00 | 0.00 | 0.00 | 57 | 1015.5 |
| 20260830190100 | 95 | 216 | 1.0 | 10.0 | 0.00 | 0.00 | 0.00 | 61 | 1015.6 |
| 20260830184559 | 95 | 151 | 0.0 | 6.0 | 0.00 | 0.00 | 0.00 | 62 | 1015.7 |
| 20260830183059 | 94 | 200 | 2.0 | 6.0 | 0.00 | 0.00 | 0.00 | 62 | 1016.0 |
| 20260830181601 | 94 | 198 | 2.0 | 5.0 | 0.00 | 0.00 | 0.00 | 68 | 1016.2 |
| 20260830180100 | 93 | 93 | 0.0 | 5.0 | 0.00 | 0.00 | 0.00 | 66 | 1016.6 |
| 20260830174601 | 94 | 215 | 1.0 | 5.0 | 0.00 | 0.00 | 0.00 | 65 | 1016.8 |
| 20260830173108 | 93 | 182 | 1.0 | 4.0 | 0.00 | 0.00 | 0.00 | 71 | 1016.9 |
| 20260830170101 | 90 | 246 | 0.0 | 3.0 | 0.00 | 0.00 | 0.00 | 74 | 1017.1 |
| 20260830170001 | 90 | 246 | 0.0 | 3.0 | 0.00 | 0.00 | 0.00 | 73 | 1017.1 |
| 20260830164610 | 89 | 226 | 0.0 | 3.0 | 0.00 | 0.00 | 0.00 | 76 | 1017.4 |
| 20260830163113 | 88 | 229 | 0.0 | 4.0 | 0.00 | 0.00 | 0.00 | 78 | 1017.4 |
| 20260830161608 | 87 | 229 | 1.0 | 3.0 | 0.00 | 0.00 | 0.00 | 80 | 1017.5 |
| 20260830160058 | 87 | 229 | 1.0 | 4.0 | 0.00 | 0.00 | 0.00 | 82 | 1017.5 |
| 20260830160001 | 87 | 229 | 1.0 | 4.0 | 0.00 | 0.00 | 0.00 | 83 | 1017.5 |
| 20260830154601 | 87 | 238 | 0.0 | 5.0 | 0.00 | 0.00 | 0.00 | 83 | 1017.4 |
| 20260830153108 | 87 | 189 | 2.0 | 5.0 | 0.00 | 0.00 | 0.00 | 85 | 1017.5 |
| 20260830151601 | 86 | 182 | 1.0 | 3.0 | 0.00 | 0.00 | 0.00 | 85 | 1017.3 |
| 20260830150101 | 86 | 182 | 0.0 | 4.0 | 0.00 | 0.00 | 0.00 | 85 | 1017.3 |
| 20260830144559 | 86 | 182 | 0.0 | 4.0 | 0.00 | 0.00 | 0.00 | 88 | 1017.3 |
| 20260830143058 | 85 | 183 | 0.0 | 4.0 | 0.00 | 0.00 | 0.00 | 88 | 1017.4 |
| 20260830141558 | 85 | 182 | 0.0 | 2.0 | 0.00 | 0.00 | 0.00 | 87 | 1017.3 |
| 20260830140105 | 84 | 182 | 0.0 | 1.0 | 0.00 | 0.00 | 0.00 | 89 | 1017.4 |
| 20260830134603 | 83 | 182 | 0.0 | 0.0 | 0.00 | 0.00 | 0.00 | 90 | 1017.2 |
| 20260830133058 | 82 | 182 | 0.0 | 0.0 | 0.00 | 0.00 | 0.00 | 91 | 1017.0 |
| 20260830131559 | 80 | 182 | 0.0 | 0.0 | 0.00 | 0.00 | 0.00 | 92 | 1017.0 |
| 20260830124559 | 79 | 182 | 0.0 | 0.0 | 0.00 | 0.00 | 0.00 | 92 | 1016.7 |
| 20260830123059 | 78 | 182 | 0.0 | 0.0 | 0.00 | 0.00 | 0.00 | 93 | 1016.6 |
| 20260830121558 | 78 | 182 | 0.0 | 0.0 | 0.00 | 0.00 | 0.00 | 92 | 1016.6 |
| 20260830120104 | 78 | 182 | 0.0 | 0.0 | 0.00 | 0.00 | 0.00 | 92 | 1016.5 |
| 20260830114604 | 78 | 182 | 0.0 | 0.0 | 0.00 | 0.00 | 0.00 | 92 | 1016.2 |
| 20260830113057 | 79 | 182 | 0.0 | 0.0 | 0.00 | 0.00 | 0.00 | 92 | 1016.1 |